| time (UTC) | temp F | wind direction | speed MPH | gust MPH | rain 1hr in | rain 24hr in | rain mn in | humidity % | barometer mb |
| 20260903064523 | 70 | 267 | 0.0 | 2.0 | 0.04 | 0.69 | 0.24 | 93 | 1014.7 |
| 20260903063004 | 70 | 194 | 0.0 | 2.0 | 0.14 | 0.69 | 0.24 | 93 | 1014.0 |
| 20260903061516 | 70 | 218 | 0.0 | 2.0 | 0.21 | 0.66 | 0.21 | 93 | 1014.1 |
| 20260903060012 | 70 | 127 | 0.0 | 2.0 | 0.21 | 0.66 | 0.21 | 93 | 1014.2 |
| 20260903054518 | 70 | 318 | 0.0 | 2.0 | 0.20 | 0.65 | 0.20 | 93 | 1014.8 |
| 20260903053027 | 69 | 132 | 0.0 | 2.0 | 0.10 | 0.55 | 0.10 | 92 | 1014.3 |
| 20260903051509 | 69 | 115 | 0.0 | 0.0 | 0.00 | 0.45 | 0.00 | 91 | 1014.1 |
| 20260903050013 | 69 | 115 | 0.0 | 0.0 | 0.00 | 0.45 | 0.00 | 91 | 1014.2 |
| 20260903044518 | 70 | 115 | 0.0 | 0.0 | 0.00 | 0.45 | 0.00 | 92 | 1014.1 |
| 20260903043024 | 70 | 115 | 0.0 | 0.0 | 0.00 | 0.45 | 0.00 | 92 | 1014.0 |
| 20260903041529 | 70 | 115 | 0.0 | 0.0 | 0.01 | 0.45 | 0.00 | 91 | 1013.9 |
| 20260903040009 | 70 | 115 | 0.0 | 0.0 | 0.01 | 0.45 | 0.00 | 91 | 1013.8 |
| 20260903034522 | 70 | 40 | 0.0 | 2.0 | 0.05 | 0.45 | 0.45 | 90 | 1013.9 |
| 20260903033023 | 70 | 12 | 0.0 | 2.0 | 0.18 | 0.45 | 0.45 | 89 | 1014.1 |
| 20260903031527 | 70 | 123 | 0.0 | 2.0 | 0.32 | 0.44 | 0.44 | 89 | 1013.7 |
| 20260903030032 | 71 | 273 | 1.0 | 13.0 | 0.43 | 0.44 | 0.44 | 86 | 1013.4 |
| 20260903024533 | 72 | 53 | 2.0 | 10.0 | 0.39 | 0.40 | 0.40 | 87 | 1013.0 |
| 20260903023016 | 75 | 249 | 6.0 | 13.0 | 0.26 | 0.27 | 0.27 | 90 | 1013.8 |
| 20260903021529 | 75 | 202 | 0.0 | 9.0 | 0.11 | 0.12 | 0.12 | 91 | 1012.7 |
| 20260903020027 | 75 | 220 | 0.0 | 0.0 | 0.00 | 0.01 | 0.01 | 91 | 1013.7 |
| 20260903014533 | 75 | 220 | 0.0 | 0.0 | 0.00 | 0.01 | 0.01 | 90 | 1013.6 |
| 20260903013016 | 75 | 220 | 0.0 | 0.0 | 0.00 | 0.01 | 0.01 | 89 | 1013.5 |
| 20260903011504 | 76 | 220 | 0.0 | 0.0 | 0.00 | 0.01 | 0.01 | 88 | 1013.4 |
| 20260903010007 | 76 | 220 | 0.0 | 0.0 | 0.00 | 0.01 | 0.01 | 88 | 1013.2 |
| 20260903004511 | 77 | 220 | 0.0 | 0.0 | 0.01 | 0.01 | 0.01 | 86 | 1013.0 |
| 20260903003012 | 78 | 220 | 0.0 | 0.0 | 0.01 | 0.01 | 0.01 | 84 | 1012.7 |
| 20260903001520 | 79 | 220 | 0.0 | 0.0 | 0.01 | 0.01 | 0.01 | 83 | 1012.6 |
| 20260903000010 | 81 | 220 | 0.0 | 1.0 | 0.01 | 0.01 | 0.01 | 81 | 1012.9 |
| 20260902234510 | 82 | 220 | 0.0 | 2.0 | 0.00 | 0.00 | 0.00 | 76 | 1013.1 |
| 20260902233013 | 84 | 220 | 0.0 | 0.0 | 0.00 | 0.00 | 0.00 | 74 | 1012.9 |
| 20260902231534 | 85 | 220 | 0.0 | 2.0 | 0.00 | 0.00 | 0.00 | 71 | 1012.7 |
| 20260902230032 | 87 | 220 | 0.0 | 2.0 | 0.00 | 0.00 | 0.00 | 68 | 1012.6 |
| 20260902224508 | 89 | 217 | 0.0 | 2.0 | 0.00 | 0.00 | 0.00 | 62 | 1012.8 |
| 20260902223011 | 88 | 269 | 3.0 | 9.0 | 0.00 | 0.00 | 0.00 | 62 | 1012.8 |
| 20260902221520 | 89 | 261 | 5.0 | 9.0 | 0.00 | 0.00 | 0.00 | 59 | 1012.7 |
| 20260902220024 | 89 | 184 | 0.0 | 8.0 | 0.00 | 0.00 | 0.00 | 62 | 1012.4 |
| 20260902214506 | 89 | 250 | 3.0 | 7.0 | 0.00 | 0.00 | 0.00 | 62 | 1012.4 |
| 20260902213010 | 90 | 214 | 2.0 | 7.0 | 0.00 | 0.00 | 0.00 | 62 | 1012.6 |
| 20260902211512 | 91 | 211 | 3.0 | 5.0 | 0.00 | 0.00 | 0.00 | 59 | 1012.5 |
| 20260902210019 | 90 | 191 | 3.0 | 8.0 | 0.00 | 0.00 | 0.00 | 59 | 1012.7 |
| 20260902204525 | 90 | 213 | 4.0 | 9.0 | 0.00 | 0.00 | 0.00 | 60 | 1012.9 |
| 20260902203008 | 90 | 265 | 4.0 | 8.0 | 0.00 | 0.00 | 0.00 | 59 | 1013.1 |
| 20260902201511 | 90 | 190 | 2.0 | 9.0 | 0.00 | 0.00 | 0.00 | 60 | 1013.5 |
| 20260902200016 | 90 | 259 | 1.0 | 8.0 | 0.00 | 0.00 | 0.00 | 64 | 1013.4 |
| 20260902194527 | 89 | 242 | 2.0 | 8.0 | 0.00 | 0.00 | 0.00 | 62 | 1013.8 |
| 20260902193030 | 90 | 182 | 4.0 | 14.0 | 0.00 | 0.00 | 0.00 | 60 | 1014.1 |
| 20260902191509 | 90 | 236 | 1.0 | 8.0 | 0.00 | 0.00 | 0.00 | 62 | 1014.2 |
| 20260902190012 | 91 | 238 | 4.0 | 11.0 | 0.00 | 0.00 | 0.00 | 59 | 1014.2 |
| 20260902184519 | 91 | 275 | 1.0 | 9.0 | 0.00 | 0.00 | 0.00 | 60 | 1014.2 |
| 20260902183029 | 91 | 274 | 2.0 | 9.0 | 0.00 | 0.00 | 0.00 | 60 | 1014.3 |
| 20260902181530 | 91 | 269 | 3.0 | 10.0 | 0.00 | 0.00 | 0.00 | 62 | 1014.1 |
| 20260902180014 | 89 | 302 | 2.0 | 7.0 | 0.00 | 0.00 | 0.00 | 64 | 1014.2 |
| 20260902174518 | 89 | 180 | 1.0 | 10.0 | 0.00 | 0.00 | 0.00 | 64 | 1014.3 |
| 20260902173024 | 89 | 213 | 1.0 | 6.0 | 0.00 | 0.00 | 0.00 | 67 | 1014.7 |
| 20260902171529 | 89 | 273 | 3.0 | 7.0 | 0.00 | 0.00 | 0.00 | 64 | 1015.0 |
| 20260902170033 | 89 | 226 | 2.0 | 4.0 | 0.00 | 0.00 | 0.00 | 68 | 1015.1 |
| 20260902164518 | 89 | 249 | 3.0 | 8.0 | 0.00 | 0.00 | 0.00 | 66 | 1015.4 |
| 20260902163024 | 88 | 196 | 2.0 | 8.0 | 0.00 | 0.00 | 0.00 | 69 | 1015.5 |
| 20260902161511 | 88 | 321 | 2.0 | 10.0 | 0.00 | 0.00 | 0.00 | 66 | 1015.5 |
| 20260902160010 | 88 | 235 | 4.0 | 9.0 | 0.00 | 0.00 | 0.00 | 68 | 1015.7 |
| 20260902154524 | 87 | 310 | 2.0 | 7.0 | 0.00 | 0.00 | 0.00 | 69 | 1015.2 |
| 20260902153019 | 86 | 243 | 2.0 | 7.0 | 0.00 | 0.00 | 0.00 | 69 | 1015.1 |
| 20260902151503 | 86 | 164 | 2.0 | 5.0 | 0.00 | 0.00 | 0.00 | 70 | 1015.1 |
| 20260902150007 | 86 | 263 | 1.0 | 6.0 | 0.00 | 0.00 | 0.00 | 71 | 1015.1 |
| 20260902144526 | 85 | 246 | 1.0 | 3.0 | 0.00 | 0.00 | 0.00 | 74 | 1015.2 |
| 20260902143018 | 84 | 307 | 1.0 | 5.0 | 0.00 | 0.00 | 0.00 | 75 | 1015.1 |
| 20260902141526 | 83 | 269 | 2.0 | 5.0 | 0.00 | 0.00 | 0.00 | 76 | 1015.1 |
| 20260902140008 | 82 | 163 | 0.0 | 5.0 | 0.00 | 0.00 | 0.00 | 79 | 1015.1 |
| 20260902134522 | 81 | 334 | 0.0 | 2.0 | 0.00 | 0.00 | 0.00 | 80 | 1015.2 |
| 20260902133016 | 79 | 284 | 1.0 | 5.0 | 0.00 | 0.00 | 0.00 | 83 | 1015.2 |
| 20260902131519 | 78 | 220 | 0.0 | 2.0 | 0.00 | 0.00 | 0.00 | 84 | 1015.4 |
| 20260902130004 | 78 | 260 | 1.0 | 4.0 | 0.00 | 0.00 | 0.00 | 85 | 1015.4 |
| 20260902124508 | 77 | 220 | 2.0 | 4.0 | 0.00 | 0.00 | 0.00 | 86 | 1015.4 |
| 20260902123014 | 75 | 179 | 1.0 | 3.0 | 0.00 | 0.00 | 0.00 | 89 | 1015.4 |
| 20260902121518 | 75 | 243 | 1.0 | 2.0 | 0.00 | 0.00 | 0.00 | 90 | 1015.5 |
| 20260902120026 | 74 | 186 | 1.0 | 2.0 | 0.00 | 0.00 | 0.00 | 90 | 1015.3 |
| 20260902114506 | 74 | 224 | 0.0 | 2.0 | 0.00 | 0.00 | 0.00 | 89 | 1015.3 |
| 20260902113018 | 75 | 213 | 1.0 | 3.0 | 0.00 | 0.00 | 0.00 | 89 | 1015.3 |
| 20260902111521 | 75 | 265 | 0.0 | 5.0 | 0.00 | 0.00 | 0.00 | 89 | 1015.4 |
| 20260902110023 | 75 | 246 | 1.0 | 4.0 | 0.00 | 0.00 | 0.00 | 90 | 1015.3 |
| 20260902104527 | 75 | 229 | 0.0 | 2.0 | 0.00 | 0.00 | 0.00 | 90 | 1015.6 |
| 20260902103018 | 74 | 290 | 0.0 | 3.0 | 0.00 | 0.00 | 0.00 | 91 | 1015.7 |
| 20260902101516 | 74 | 315 | 0.0 | 2.0 | 0.00 | 0.00 | 0.00 | 92 | 1015.7 |
| 20260902100022 | 74 | 293 | 0.0 | 2.0 | 0.00 | 0.00 | 0.00 | 92 | 1015.1 |
| 20260902094528 | 74 | 206 | 1.0 | 3.0 | 0.00 | 0.00 | 0.00 | 93 | 1015.0 |
| 20260902093029 | 74 | 236 | 0.0 | 2.0 | 0.00 | 0.00 | 0.00 | 94 | 1014.9 |
| 20260902091512 | 73 | 272 | 1.0 | 6.0 | 0.00 | 0.00 | 0.00 | 94 | 1015.0 |
| 20260902090020 | 73 | 229 | 0.0 | 2.0 | 0.00 | 0.00 | 0.00 | 93 | 1014.8 |
| 20260902084526 | 73 | 229 | 0.0 | 3.0 | 0.00 | 0.00 | 0.00 | 94 | 1014.8 |
| 20260902083028 | 72 | 296 | 0.0 | 2.0 | 0.00 | 0.00 | 0.00 | 94 | 1014.9 |
| 20260902081531 | 71 | 284 | 0.0 | 2.0 | 0.00 | 0.00 | 0.00 | 93 | 1014.9 |
| 20260902080014 | 71 | 284 | 0.0 | 2.0 | 0.00 | 0.00 | 0.00 | 94 | 1014.8 |
| 20260902074522 | 71 | 284 | 0.0 | 2.0 | 0.00 | 0.00 | 0.00 | 94 | 1014.9 |
| 20260902073024 | 70 | 284 | 0.0 | 2.0 | 0.00 | 0.00 | 0.00 | 93 | 1014.8 |
| 20260902071508 | 70 | 284 | 0.0 | 2.0 | 0.00 | 0.00 | 0.00 | 93 | 1014.6 |
| 20260902070014 | 69 | 284 | 0.0 | 2.0 | 0.00 | 0.00 | 0.00 | 92 | 1014.5 |